Regional Weather Roundup
Issued by NWS

Home | Current Version | Previous Version | Text Only | Print | Product List | Glossary On
Versions: 1 2 3 4 5 6 7 8 9 10 11 12 13 14 15 16 17 18 19 20 21 22 23 24 25 26 27 28 29 30 31 32 33 34 35 36 37 38 39 40 41 42 43 44 45 46 47 48 49 50
000
ASCA42 TJSJ 052310
RWRPR
PUERTO RICO/U.S. VIRGIN ISLANDS HOURLY WEATHER ROUNDUP
NATIONAL WEATHER SERVICE SAN JUAN PR
700 PM AST SUN JUL 05 2015

PRZ001-004-060000-
PUERTO RICO

CITY           SKY/WX    TMP DP  RH WIND       PRES   REMARKS
SAN JUAN LMM   PTCLDY    82  77  83 E13       30.08R HX  91
AGUADILLA      PTCLDY    82  73  74 E18G28    30.08S
$$

PRZ006-007-060000-
U.S. VIRGIN ISLANDS

CITY           SKY/WX    TMP DP  RH WIND       PRES   REMARKS
CHARLOTTE AMA  CLOUDY    84  73  70 E16       30.06R HX  91
CHRISTIANSTED  PTCLDY    82  73  74 NE13G20   30.06R
$$

HOURLY WEATHER ROUNDUP FOR THE NEWS MEDIA

CITY           SKY/WX    TMP DP  RH WIND       PRES   REMARKS
ORLANDO        TSTM      73  72  96 CALM      30.19F FOG
NEW YORK       PTSUNNY   76  63  64 S17       30.12R
NEWARK         PTSUNNY   83  59  44 W6        30.10R
CHICAGO        MOSUNNY   81  60  48 SW8       30.02F
HARTFORD       SUNNY     77  64  64 SW10      30.07R
DALLAS         MOSUNNY   93  67  42 S18G24    29.92F HX  96
PHILADELPHIA   MOSUNNY   83  64  52 SW8       30.11S
LOS ANGELES    PTSUNNY   69  60  73 W13       29.97S
WASHINGTON DC  CLOUDY    80  69  69 S3        30.10S


USA.gov is the U.S. government's official web portal to all federal, state and local government web resources and services.